[[{"header":{"parameterUnit":"m.s-1","parameterCategory":1,"la1":30.2991,"la2":30.254,"lo1":-89.0895,"lo2":-89.0444,"dy":0.0017,"dx":0.0017,"nx":28,"ny":28,"refTime":"2025-01-18T09:00:00:Z","depth":0,"parameterNumber":2,"parameterNumberName":"U-component_of_WINDS"},"data":[0,0,0,0,0,0,0,0,0,0,0,0,0,0,0,0,0,0,0,0,0,0,0,0,0,0,0,0,0,0,0,0,0,0,0,0,0,0,0,0,0,0,0,0,0,0,0,0,0,0,0,0,0,0,0,0,0,0,4.181,4.1811,0,4.19,4.1901,4.1902,4.186,4.1858,4.1855,4.1853,4.1946,4.1951,4.1955,0,0,0,0,0,0,0,0,0,0,0,0,0,4.1604,4.1608,4.181,4.1811,4.1812,4.19,4.1901,4.1902,4.186,4.1857,4.1855,4.1852,4.1945,4.195,4.1956,0,0,0,0,0,0,0,0,0,0,0,0,0,4.1694,4.1609,4.181,4.1802,4.1802,4.19,4.1901,4.1903,4.1861,4.1857,4.1854,4.1851,4.1943,4.195,4.1956,4.2068,0,0,4.1978,4.1981,0,0,0,0,0,0,0,0,4.1689,4.1701,4.1802,4.1802,4.1803,4.1865,4.1863,4.1958,4.1862,4.1838,4.1853,4.1849,4.1922,4.193,4.1955,4.2072,4.2076,4.1978,4.1982,4.1985,4.1987,0,0,0,0,0,0,0,4.1682,4.1697,4.1845,4.1803,4.1804,4.1794,4.1803,4.188,4.1898,4.184,4.1837,4.1849,4.1922,4.1948,4.1957,4.2077,4.1978,4.1984,4.1988,4.1991,4.2293,4.2297,0,0,0,0,0,0,4.1676,4.1692,4.1843,4.1848,4.1736,4.1801,4.1811,4.1849,4.1897,4.1902,4.1851,4.1846,4.1938,4.1949,4.196,4.2095,4.1985,4.1992,4.1996,4.229,4.2294,4.2298,0,0,0,0,0,0,4.1672,4.169,4.1839,4.177,4.1788,4.1808,4.1851,4.1852,4.1879,4.1906,4.1909,4.1875,4.1936,4.195,4.2042,4.2098,4.1995,4.2001,4.2285,4.2291,4.2296,4.2365,0,0,0,0,0,0,4.1666,4.1689,4.173,4.1771,4.1792,4.1919,4.1854,4.1856,4.1891,4.1885,4.1929,4.1933,4.1934,4.2032,4.2049,4.2105,4.2007,4.228,4.2288,4.2294,4.2358,4.2373,4.2385,0,0,0,0,0,4.1659,4.1746,4.1732,4.1751,4.1844,4.1922,4.1934,4.1933,4.1895,4.1938,4.1956,4.1932,4.2089,4.2041,4.206,4.212,4.2276,4.2285,4.2294,4.2352,4.237,4.2385,0,0,0,0,0,0,4.171,4.1751,4.1736,4.1839,4.1877,4.1915,4.1968,4.1952,4.2002,4.1995,4.1992,4.2003,4.2098,4.2118,4.2064,4.2232,4.2177,4.219,4.2215,4.2232,4.2245,4.2239,4.2012,0,0,0,0,0,4.1734,4.1793,4.1825,4.1912,4.1933,4.1947,4.1981,4.1978,4.2018,4.2034,4.2058,4.2098,4.2157,4.2196,4.2251,4.2361,4.2371,4.2412,4.2425,4.2436,4.2448,4.251,4.2529,4.2327,4.2327,4.2327,0,0,4.1782,4.1812,4.1849,4.1924,4.1953,4.2016,4.1961,4.2029,4.2076,4.2044,4.2132,4.2152,4.2197,4.2299,4.2345,4.2319,4.2506,4.2448,4.2456,4.2462,4.2521,4.254,4.2557,4.2333,4.2332,4.2331,0,0,4.1903,4.1931,4.2007,4.2039,4.2084,4.2094,4.2113,4.2153,4.2166,4.2254,4.2233,4.2289,4.2389,4.2423,4.2453,4.2591,4.2571,4.2609,4.268,4.2741,4.2757,4.2771,4.2822,4.284,4.262,4.262,4.262,0,4.1958,4.2051,4.2049,4.212,4.2154,4.2129,4.2208,4.2238,4.23,4.2325,4.2294,4.2422,4.245,4.2561,4.2595,4.262,4.2642,4.2603,4.2755,4.2769,4.2782,4.283,4.2849,4.2624,4.2624,4.2623,4.2623,0,4.2117,4.2182,4.2239,4.23,4.2341,4.2415,4.2426,4.2467,4.2461,4.2475,4.2567,4.2601,4.2664,4.269,4.2684,4.2801,4.2784,4.2754,4.2699,4.2806,4.2851,4.287,4.2631,4.2629,4.2628,4.2627,0,0,4.2271,4.2332,4.2353,4.2382,4.2432,4.2482,4.2557,4.2619,4.2656,4.27,4.2763,4.285,4.2824,4.2859,4.2857,4.2911,4.302,4.2875,4.2876,4.2902,4.3154,4.3176,4.3198,4.3008,4.3011,4.3014,4.3151,0,4.2397,4.2526,4.2528,4.2648,4.271,4.2688,4.2753,4.2792,4.2807,4.2863,4.288,4.2942,4.2902,4.2923,4.2975,4.2996,4.3071,4.2986,4.3068,4.3071,4.3058,4.3221,4.3245,4.3372,4.3168,4.3171,4.3173,0,4.256,4.261,4.2736,4.278,4.2806,4.2864,4.2923,4.2976,4.302,4.3028,4.3068,4.3059,4.3137,4.308,4.3188,4.3131,4.3165,4.318,4.3185,4.3193,4.3129,4.3235,4.3412,4.3432,4.3201,4.3199,4.3197,0,4.2662,4.2761,4.285,4.2875,4.2928,4.297,4.2994,4.3035,4.3073,4.3125,4.315,4.3209,4.3243,4.329,4.3298,4.3255,4.3408,4.3351,4.3418,4.3418,4.345,4.3448,4.3637,4.3471,4.3471,4.3471,4.347,0,4.2802,4.288,4.2897,4.2952,4.304,4.3042,4.313,4.3151,4.3188,4.3248,4.3233,4.3289,4.3296,4.3355,4.3363,4.3453,4.3467,4.3477,4.3478,4.3479,4.3478,4.3501,4.3493,4.3476,4.3475,4.3474,4.3473,0,4.293,4.2944,4.304,4.3083,4.3096,4.3159,4.3197,4.325,4.3265,4.3341,4.3359,4.3382,4.3451,4.3464,4.3545,4.355,4.3658,4.365,4.3643,4.3643,4.371,4.3704,4.392,4.395,4.3764,4.3766,4.3767,0,4.3019,4.3079,4.3129,4.3168,4.3195,4.3257,4.3297,4.3303,4.3344,4.3401,4.3448,4.3516,4.357,4.3682,4.3707,4.377,4.3764,4.3836,4.3773,4.3773,4.3767,4.3763,4.377,4.3847,4.3849,4.3851,4.3852,0,4.3176,4.3181,4.3237,4.3298,4.3346,4.3394,4.3439,4.3472,4.3484,4.3532,4.3603,4.3645,4.373,4.3798,4.3861,4.3887,4.3873,4.3872,4.3891,4.3893,4.3887,4.3893,4.3677,4.3867,4.3866,4.3864,4.3864,4.3863,4.3288,4.3341,4.3386,4.3451,4.3486,4.353,4.3583,4.3605,4.3664,4.3733,4.3733,4.3811,4.3857,4.394,4.3971,4.4033,4.401,4.4037,4.4045,4.4051,4.4059,4.3877,4.4044,4.4044,4.4044,4.4043,4.4043,0,4.3445,4.3473,4.3533,4.3598,4.365,4.3632,4.3682,4.3727,4.3796,4.384,4.3894,4.3977,4.4044,4.4075,4.4141,4.4185,4.4181,4.4203,4.42,4.4207,4.4074,4.4052,4.4206,4.4206,4.4206,4.4205,4.4205,4.4205,4.3533,4.3623,4.3634,4.3743,4.377,4.3847,4.3877,4.3918,4.3953,4.4047,4.4102,4.4122,4.4162,4.4232,4.4293,4.4301,4.4326,4.4352,4.4357,4.4232,4.4216,4.42,4.4179,4.4357,4.4357,4.4484,4.4485,4.4486]},{"header":{"parameterUnit":"m.s-1","parameterCategory":1,"la1":30.2991,"la2":30.254,"lo1":-89.0895,"lo2":-89.0444,"dy":0.0017,"dx":0.0017,"nx":28,"ny":28,"refTime":"2025-01-18T09:00:00:Z","depth":0,"parameterNumber":3,"parameterNumberName":"V-component_of_WINDS"},"data":[0,0,0,0,0,0,0,0,0,0,0,0,0,0,0,0,0,0,0,0,0,0,0,0,0,0,0,0,0,0,0,0,0,0,0,0,0,0,0,0,0,0,0,0,0,0,0,0,0,0,0,0,0,0,0,0,0,0,-7.6622,-7.6624,0,-7.6791,-7.6793,-7.6795,-7.6753,-7.6749,-7.6746,-7.6743,-7.6912,-7.6919,-7.6927,0,0,0,0,0,0,0,0,0,0,0,0,0,-7.6262,-7.6269,-7.6622,-7.6624,-7.6627,-7.6791,-7.6793,-7.6795,-7.6753,-7.6749,-7.6745,-7.6742,-7.691,-7.6919,-7.6928,0,0,0,0,0,0,0,0,0,0,0,0,0,-7.6423,-7.6271,-7.6622,-7.6626,-7.6628,-7.679,-7.6793,-7.6796,-7.6754,-7.6749,-7.6744,-7.674,-7.6907,-7.6918,-7.6929,-7.7097,0,0,-7.6963,-7.6968,0,0,0,0,0,0,0,0,-7.6414,-7.6437,-7.6623,-7.6626,-7.6628,-7.6746,-7.6728,-7.6897,-7.6755,-7.6706,-7.6743,-7.6737,-7.6861,-7.6875,-7.6918,-7.7105,-7.7112,-7.6964,-7.6971,-7.6976,-7.6979,0,0,0,0,0,0,0,-7.6403,-7.6429,-7.6689,-7.6626,-7.6629,-7.6618,-7.6635,-7.676,-7.6809,-7.671,-7.6707,-7.6728,-7.6861,-7.6907,-7.6921,-7.7115,-7.6964,-7.6974,-7.6981,-7.6986,-7.745,-7.7456,0,0,0,0,0,0,-7.639,-7.642,-7.6683,-7.6694,-7.6507,-7.6628,-7.6648,-7.6713,-7.6807,-7.6817,-7.6732,-7.6725,-7.689,-7.6908,-7.6927,-7.7132,-7.6976,-7.6987,-7.6993,-7.7445,-7.7452,-7.7458,0,0,0,0,0,0,-7.6383,-7.6414,-7.6677,-7.6557,-7.6589,-7.664,-7.6713,-7.6719,-7.6765,-7.6824,-7.6832,-7.677,-7.6887,-7.6911,-7.7056,-7.7137,-7.6992,-7.7002,-7.7438,-7.7447,-7.7455,-7.7542,0,0,0,0,0,0,-7.6373,-7.6412,-7.6477,-7.6558,-7.6596,-7.6804,-7.6718,-7.6726,-7.6785,-7.6778,-7.6862,-7.6871,-7.6885,-7.7039,-7.7067,-7.715,-7.7011,-7.7431,-7.7442,-7.7452,-7.7532,-7.7552,-7.7569,0,0,0,0,0,-7.636,-7.6493,-7.648,-7.6512,-7.6678,-7.6808,-7.683,-7.6844,-7.6791,-7.6857,-7.6895,-7.6868,-7.7123,-7.7054,-7.7085,-7.7173,-7.7426,-7.7439,-7.7451,-7.7524,-7.7548,-7.7569,0,0,0,0,0,0,-7.6419,-7.6504,-7.649,-7.6655,-7.6725,-7.6801,-7.6884,-7.6869,-7.6955,-7.6945,-7.6957,-7.6976,-7.7125,-7.7163,-7.7084,-7.7342,-7.7267,-7.7286,-7.7312,-7.7335,-7.7354,-7.7342,-7.702,0,0,0,0,0,-7.6451,-7.6551,-7.6619,-7.6757,-7.6794,-7.6833,-7.689,-7.6895,-7.6968,-7.6997,-7.7046,-7.7117,-7.7213,-7.7276,-7.7367,-7.7537,-7.7555,-7.7612,-7.7631,-7.7646,-7.7663,-7.7757,-7.7784,-7.7499,-7.7498,-7.7498,0,0,-7.6518,-7.6577,-7.6639,-7.6771,-7.6826,-7.6929,-7.6858,-7.6969,-7.7046,-7.7013,-7.7154,-7.7192,-7.7272,-7.7431,-7.7503,-7.7467,-7.7746,-7.7662,-7.7674,-7.7683,-7.7773,-7.78,-7.7824,-7.7507,-7.7505,-7.7504,0,0,-7.6694,-7.6748,-7.687,-7.6927,-7.7012,-7.7037,-7.7067,-7.7146,-7.7171,-7.7312,-7.7291,-7.7381,-7.7546,-7.7605,-7.7656,-7.7855,-7.7834,-7.7884,-7.7983,-7.8074,-7.8096,-7.8116,-7.8189,-7.8215,-7.7901,-7.7901,-7.7901,0,-7.6767,-7.6921,-7.6934,-7.7049,-7.7107,-7.7085,-7.7208,-7.7262,-7.7372,-7.7413,-7.7372,-7.758,-7.7632,-7.7805,-7.7853,-7.7895,-7.7929,-7.7875,-7.8092,-7.8113,-7.8131,-7.8201,-7.8228,-7.7907,-7.7906,-7.7905,-7.7905,0,-7.7007,-7.7115,-7.7203,-7.7312,-7.7381,-7.7499,-7.7529,-7.7597,-7.7596,-7.7626,-7.7771,-7.7833,-7.7937,-7.7978,-7.7977,-7.8151,-7.8127,-7.8089,-7.8014,-7.8164,-7.823,-7.8256,-7.7915,-7.7913,-7.7911,-7.791,0,0,-7.7225,-7.7341,-7.7373,-7.7423,-7.7515,-7.7598,-7.7715,-7.7819,-7.7878,-7.7954,-7.8053,-7.8194,-7.816,-7.8218,-7.8224,-7.8304,-7.846,-7.8256,-7.8258,-7.8293,-7.8657,-7.8686,-7.8717,-7.8446,-7.8451,-7.8455,-7.8651,0,-7.741,-7.7618,-7.7634,-7.7821,-7.7922,-7.7902,-7.8004,-7.8071,-7.8102,-7.8191,-7.8224,-7.8325,-7.8272,-7.8307,-7.8386,-7.8424,-7.8533,-7.841,-7.8538,-7.8543,-7.8521,-7.8751,-7.8782,-7.8963,-7.8676,-7.868,-7.8684,0,-7.7654,-7.774,-7.7938,-7.8018,-7.8061,-7.8152,-7.825,-7.8335,-7.8411,-7.8428,-7.8494,-7.8489,-7.8609,-7.8529,-7.8695,-7.8612,-7.8665,-7.8692,-7.8699,-7.8713,-7.8623,-7.8772,-7.9021,-7.905,-7.8724,-7.872,-7.8718,0,-7.7795,-7.796,-7.8101,-7.8144,-7.824,-7.8305,-7.8348,-7.8419,-7.8481,-7.8565,-7.8606,-7.8702,-7.8755,-7.883,-7.8851,-7.8791,-7.9017,-7.8939,-7.9035,-7.9035,-7.9085,-7.9082,-7.9348,-7.9117,-7.9116,-7.9116,-7.9115,0,-7.8002,-7.8124,-7.8166,-7.8252,-7.8389,-7.8405,-7.854,-7.8578,-7.8642,-7.8736,-7.8723,-7.8811,-7.8833,-7.8925,-7.8941,-7.9077,-7.9101,-7.9118,-7.9121,-7.9121,-7.9119,-7.9156,-7.9145,-7.9123,-7.9121,-7.912,-7.9119,0,-7.8183,-7.8216,-7.8368,-7.8447,-7.847,-7.8567,-7.8634,-7.8717,-7.8746,-7.8865,-7.8894,-7.894,-7.9047,-7.9076,-7.9203,-7.9215,-7.9376,-7.9366,-7.9351,-7.9351,-7.9446,-7.9438,-7.9748,-7.979,-7.9529,-7.9531,-7.9533,0,-7.8313,-7.8408,-7.8497,-7.856,-7.8606,-7.8706,-7.877,-7.8789,-7.8856,-7.895,-7.9022,-7.9128,-7.9215,-7.9387,-7.9432,-7.953,-7.9524,-7.9626,-7.9538,-7.9535,-7.9528,-7.9523,-7.9533,-7.9643,-7.9645,-7.9648,-7.9649,0,-7.8542,-7.8554,-7.8647,-7.8746,-7.8823,-7.8902,-7.8977,-7.9028,-7.9058,-7.9134,-7.9245,-7.9312,-7.9443,-7.9549,-7.9649,-7.9692,-7.9677,-7.9677,-7.9704,-7.9705,-7.9693,-7.9703,-7.9398,-7.967,-7.9668,-7.9666,-7.9665,-7.9664,-7.8703,-7.8787,-7.8863,-7.8968,-7.9027,-7.9098,-7.918,-7.9221,-7.9314,-7.9424,-7.9429,-7.955,-7.9624,-7.9756,-7.9805,-7.9899,-7.9868,-7.9908,-7.9918,-7.9928,-7.9938,-7.9677,-7.9917,-7.9916,-7.9916,-7.9915,-7.9915,0,-7.8933,-7.8981,-7.9077,-7.9184,-7.9266,-7.9245,-7.9328,-7.9398,-7.9505,-7.9575,-7.9661,-7.9789,-7.9892,-7.9945,-8.0047,-8.0113,-8.0108,-8.0139,-8.0135,-8.0146,-7.9958,-7.9925,-8.0141,-8.0141,-8.0141,-8.0141,-8.0141,-8.0141,-7.9062,-7.9203,-7.9224,-7.9394,-7.9441,-7.956,-7.961,-7.9675,-7.9732,-7.9876,-7.9962,-7.9996,-8.006,-8.0167,-8.0261,-8.0274,-8.0313,-8.0348,-8.0357,-8.0181,-8.0158,-8.0137,-8.0105,-8.0356,-8.0356,-8.0537,-8.0538,-8.054]}]]